Cut Bank, MT

8:33 PM MDT on May 23, 2017 (GMT -0600)
Cut Bank Municipal

Weather History for KCTB - May, 2014

Change the Weather History Date:

Thursday, May 8, 2014

  Actual Average Record
Temperature  
Mean Temperature 45 °F 48 °F  
Max Temperature 62 °F 60 °F 82 °F (1987)
Min Temperature 27 °F 35 °F 21 °F (1909)
Degree Days  
Heating Degree Days 20 17  
Month to date heating degree days 173 148  
Since 1 July heating degree days 8308 7968  
Cooling Degree Days 0 0  
Month to date cooling degree days 0 0  
Year to date cooling degree days 0 0  
Moisture  
Dew Point 25 °F    
Average Humidity 53    
Maximum Humidity 85    
Minimum Humidity 20    
Precipitation  
Precipitation 0.00 in 0.04 in 1.34 in (1948)
Month to date precipitation 0.23 0.31  
Year to date precipitation 3.73 2.00  
Snow  
Snow 0.00 in - - ()
Snow Depth 0.00 in    
Sea Level Pressure  
Sea Level Pressure 29.80 in    
Wind  
Wind Speed 10 mph (SSW)    
Max Wind Speed 21 mph    
Max Gust Speed 26 mph    
Visibility 10 miles    
Events      
T = Trace of Precipitation, MM = Missing Value Source: NWS Daily Summary

Daily Weather History Graph

Daily Weather History Graph

Search for Another Location

Airport or City:

Trip Planner

Search our weather history database for the weather conditions in past years. The results will help you decide how hot, cold, wet, or windy it might be!

Date:

Astronomy

May. 08, 2014 Rise Set
Actual Time 5:58 AM MDT 8:54 PM MDT
Civil Twilight 5:21 AM MDT 9:31 PM MDT
Nautical Twilight 4:35 AM MDT 10:18 PM MDT
Astronomical Twilight 3:38 AM MDT 11:16 PM MDT
Moon 2:29 PM MDT (5/8) 3:02 AM MDT (5/8)
Length of Visible Light 16h 09m
Length of Day
14h 56m
Waxing Gibbous, 65% of the Moon is Illuminated
May 8
Waxing Gibbous
May 14
Full
May 21
Last Quarter
May 28
New
Jun 5
First Quarter

Hourly Weather History & Observations

Time (MDT) Temp. Windchill Dew Point Humidity Pressure Visibility Wind Dir Wind Speed Gust Speed Precip Events Conditions
12:56 AM 32.0 °F 24.2 °F 24.1 °F 73% 29.94 in 10.0 mi SE 9.2 mph - N/A   Clear
1:56 AM 30.9 °F 24.3 °F 24.1 °F 76% 29.94 in 10.0 mi SSE 6.9 mph - N/A   Clear
2:56 AM 32.0 °F 25.6 °F 25.0 °F 75% 29.91 in 10.0 mi SSE 6.9 mph - N/A   Partly Cloudy
3:56 AM 28.9 °F 22.8 °F 24.1 °F 82% 29.90 in 10.0 mi SSE 5.8 mph - N/A   Clear
4:56 AM 28.0 °F 21.7 °F 24.1 °F 85% 29.90 in 10.0 mi SSE 5.8 mph - N/A   Clear
5:56 AM 27.0 °F - 23.0 °F 85% 29.89 in 10.0 mi Calm Calm - N/A   Clear
6:56 AM 30.0 °F 25.2 °F 26.1 °F 85% 29.88 in 10.0 mi SE 4.6 mph - N/A   Clear
7:56 AM 33.1 °F 27.7 °F 27.0 °F 78% 29.88 in 10.0 mi SE 5.8 mph - N/A   Clear
8:56 AM 39.0 °F 34.8 °F 28.9 °F 67% 29.87 in 10.0 mi ESE 5.8 mph - N/A   Clear
9:56 AM 48.9 °F - 32.0 °F 52% 29.83 in 10.0 mi South 5.8 mph - N/A   Clear
10:56 AM 55.9 °F - 23.0 °F 28% 29.81 in 10.0 mi WSW 13.8 mph 21.9 mph N/A   Partly Cloudy
11:56 AM 57.9 °F - 23.0 °F 26% 29.78 in 10.0 mi West 9.2 mph - N/A   Scattered Clouds
12:56 PM 60.1 °F - 19.0 °F 20% 29.77 in 10.0 mi WSW 19.6 mph 26.5 mph N/A   Mostly Cloudy
1:56 PM 60.1 °F - 21.0 °F 22% 29.76 in 10.0 mi West 17.3 mph 23.0 mph N/A   Mostly Cloudy
2:56 PM 61.0 °F - 19.9 °F 21% 29.74 in 10.0 mi WSW 13.8 mph 21.9 mph N/A   Clear
3:56 PM 61.0 °F - 19.0 °F 20% 29.73 in 10.0 mi SW 15.0 mph 21.9 mph N/A   Clear
4:56 PM 61.0 °F - 19.9 °F 21% 29.72 in 10.0 mi West 12.7 mph - N/A   Partly Cloudy
5:56 PM 60.1 °F - 21.9 °F 23% 29.73 in 10.0 mi SW 13.8 mph 20.7 mph N/A   Clear
6:56 PM 59.0 °F - 24.1 °F 26% 29.72 in 10.0 mi WSW 18.4 mph - N/A   Partly Cloudy
7:56 PM 55.0 °F - 26.1 °F 33% 29.71 in 10.0 mi WSW 11.5 mph - N/A   Clear
8:56 PM 48.0 °F - 28.0 °F 46% 29.71 in 10.0 mi WSW 11.5 mph - N/A   Clear
9:56 PM 46.0 °F 40.6 °F 28.0 °F 50% 29.69 in 10.0 mi WSW 11.5 mph - N/A   Clear
10:56 PM 46.4 °F 40.7 °F 28.4 °F 50% 29.68 in 10.0 mi WSW 12.7 mph - N/A   Clear
11:56 PM 44.1 °F 38.1 °F 28.9 °F 55% 29.65 in 10.0 mi WSW 11.5 mph - N/A   Clear